Temperature
4 4 4 4 4 4 4 3 3 3 3 3 3 3 3 2 3 3 3 3 4 4 5 5 6 7 8 8 9 9 10 10 10 10 10 10 11 11 11 11 12 12 12
3 3 3 3 2 2 2 2 2 1 1 0 0 0 0 1 1 1 2 2 3 3 3 3 4 5 6 7 8 8 9 9 9 9 9 10 10 10 11 11 11 12 12
2 2 1 1 1 1 1 0 0 -0 -1 -1 -1 -1 -1 -1 -0 0 1 1 2 2 2 3 3 3 4 5 6 7 8 8 9 9 9 9 9 10 10 11 11 12 12
1 1 0 -0 -0 -1 -1 -1 -1 -1 -2 -2 -2 -3 -3 -3 -3 -2 -1 0 1 1 1 2 2 2 3 3 4 6 6 7 8 8 9 9 9 9 10 10 10 11 11
1 0 -0 -1 -2 -2 -2 -2 -2 -2 -3 -3 -3 -4 -4 -4 -4 -4 -3 -2 -1 -0 0 0 1 1 2 2 3 4 5 6 6 7 8 8 8 9 9 9 9 10 10
0 -1 -1 -2 -3 -3 -3 -4 -4 -4 -4 -4 -4 -5 -5 -5 -5 -5 -4 -4 -4 -3 -2 -1 -1 -0 0 1 2 3 4 5 5 6 6 7 8 8 8 9 9 9 10
-1 -2 -2 -3 -4 -4 -4 -5 -5 -5 -5 -5 -6 -6 -6 -6 -6 -6 -6 -6 -5 -5 -4 -3 -2 -2 -1 -0 1 1 2 3 4 5 6 6 7 7 8 8 8 8 9
-2 -2 -3 -4 -5 -5 -5 -6 -6 -6 -6 -6 -6 -7 -7 -7 -7 -7 -7 -6 -6 -6 -5 -4 -3 -3 -2 -1 -0 0 1 2 3 4 4 5 6 6 7 7 8 8 8
-2 -3 -4 -5 -5 -5 -6 -6 -7 -7 -7 -7 -7 -7 -8 -8 -7 -7 -7 -7 -6 -6 -6 -5 -4 -3 -3 -2 -1 -1 0 1 2 2 3 4 5 5 6 6 7 8 8
-3 -4 -4 -5 -5 -6 -6 -7 -7 -8 -8 -8 -8 -9 -8 -8 -8 -7 -7 -7 -7 -6 -6 -5 -5 -4 -3 -3 -2 -1 -1 -0 1 1 2 3 3 4 5 5 6 7 7
-3 -4 -5 -5 -6 -7 -7 -8 -8 -8 -9 -9 -9 -9 -9 -9 -8 -8 -8 -7 -7 -7 -6 -6 -6 -5 -4 -4 -3 -2 -2 -1 -0 0 1 1 2 3 3 4 5 6 6
-4 -4 -5 -6 -7 -7 -8 -8 -9 -9 -9 -9 -9 -9 -9 -9 -9 -9 -8 -8 -8 -7 -7 -7 -6 -6 -5 -4 -4 -3 -2 -2 -1 -1 -0 0 1 1 2 3 4 5 5
-4 -5 -6 -7 -8 -8 -9 -9 -9 -10 -10 -10 -10 -10 -9 -10 -9 -9 -9 -9 -9 -8 -8 -7 -7 -6 -6 -5 -5 -4 -4 -3 -2 -2 -1 -0 -0 1 1 2 3 3 4
-5 -6 -7 -8 -8 -8 -9 -10 -10 -10 -10 -10 -10 -10 -10 -10 -10 -10 -10 -10 -9 -9 -9 -8 -8 -7 -6 -6 -6 -5 -5 -4 -3 -3 -2 -1 -1 -0 0 1 1 2 3
-6 -7 -8 -8 -9 -9 -9 -10 -10 -10 -11 -11 -11 -11 -11 -11 -11 -11 -11 -10 -10 -10 -9 -9 -8 -8 -7 -7 -6 -6 -6 -5 -5 -4 -3 -3 -2 -1 -1 -0 0 1 1
-7 -8 -8 -9 -9 -10 -10 -10 -11 -11 -11 -11 -11 -12 -12 -12 -12 -12 -12 -11 -11 -10 -10 -10 -9 -8 -8 -7 -6 -6 -6 -6 -6 -5 -5 -4 -4 -3 -2 -2 -1 -1 -0
-7 -8 -9 -9 -10 -10 -11 -11 -11 -12 -12 -12 -12 -12 -13 -13 -13 -13 -12 -12 -12 -11 -11 -10 -10 -9 -8 -8 -7 -7 -7 -7 -7 -6 -6 -6 -5 -5 -4 -3 -2 -2 -2
-8 -9 -9 -9 -10 -11 -11 -11 -12 -12 -12 -12 -12 -13 -13 -13 -13 -13 -13 -13 -12 -12 -12 -11 -11 -10 -9 -9 -8 -8 -8 -8 -8 -7 -7 -7 -7 -6 -6 -5 -4 -4 -3
-9 -9 -9 -10 -10 -11 -11 -11 -12 -12 -12 -13 -13 -13 -14 -14 -14 -14 -14 -13 -13 -13 -12 -12 -11 -11 -10 -9 -9 -8 -8 -8 -8 -8 -8 -8 -8 -7 -7 -7 -6 -6 -5
-9 -9 -9 -10 -10 -11 -11 -12 -12 -13 -13 -13 -13 -14 -14 -14 -14 -14 -14 -14 -14 -13 -13 -12 -12 -12 -11 -11 -10 -9 -9 -9 -9 -9 -8 -8 -8 -8 -8 -8 -7 -7 -7
-9 -9 -9 -10 -11 -11 -11 -12 -12 -13 -13 -13 -13 -13 -14 -14 -14 -14 -14 -14 -14 -14 -13 -13 -12 -12 -12 -11 -11 -10 -9 -9 -9 -9 -9 -9 -9 -9 -9 -9 -8 -8 -8
-9 -9 -9 -10 -10 -11 -12 -12 -12 -13 -13 -13 -13 -13 -13 -14 -14 -14 -14 -14 -14 -14 -14 -14 -13 -13 -12 -12 -11 -11 -10 -10 -10 -10 -9 -9 -9 -9 -9 -9 -9 -9 -9
-9 -9 -9 -10 -10 -11 -12 -12 -12 -13 -13 -13 -13 -13 -13 -13 -14 -14 -14 -14 -14 -14 -15 -14 -14 -14 -13 -12 -12 -11 -11 -11 -11 -10 -10 -10 -10 -10 -10 -10 -10 -10 -10
-9 -9 -9 -10 -10 -10 -11 -12 -12 -13 -13 -13 -12 -13 -13 -13 -14 -14 -14 -15 -15 -15 -15 -15 -14 -14 -13 -13 -12 -12 -12 -11 -11 -11 -11 -10 -11 -11 -11 -11 -11 -11 -11
-9 -9 -10 -10 -10 -10 -11 -11 -12 -12 -12 -12 -12 -13 -14 -14 -14 -14 -15 -15 -15 -15 -14 -14 -14 -14 -14 -13 -12 -12 -12 -12 -12 -11 -11 -11 -11 -12 -12 -12 -12 -12 -12
-9 -9 -9 -10 -10 -10 -11 -11 -12 -12 -12 -12 -13 -14 -14 -14 -15 -15 -15 -14 -15 -14 -14 -14 -14 -14 -14 -13 -13 -13 -13 -13 -13 -12 -12 -12 -13 -13 -13 -13 -13 -13 -13
Wind_Speed
11 11 12 14 15 17 17 17 17 16 14 13 13 12 11 11 10 13 19 21 21 21 17 11 11 11 11 11 12 9 9 7 5 4 5 5 6 7 7 7 7 8 9
14 14 15 15 16 17 17 17 17 17 15 14 12 9 10 9 10 14 18 20 21 20 17 12 12 12 12 13 12 10 7 6 5 5 4 4 4 5 6 5 7 8 7
11 11 12 12 13 15 17 18 17 17 15 14 11 12 10 10 11 13 13 18 22 21 18 15 12 13 11 11 13 11 10 9 7 7 6 5 6 4 3 3 4 5 6
9 9 11 13 15 15 16 17 18 17 15 14 14 15 13 13 14 13 13 16 20 19 18 17 14 13 12 12 12 12 10 9 9 6 7 5 5 5 3 3 3 4 5
9 9 11 12 13 14 15 16 17 17 17 16 17 16 14 13 13 14 15 14 13 16 17 18 14 14 13 14 13 13 11 8 8 7 5 5 3 3 5 4 3 3 3
9 9 9 11 12 14 15 16 17 17 18 18 18 18 18 18 18 19 17 16 14 13 15 18 14 14 14 15 14 12 12 9 8 7 5 4 4 5 5 6 5 4 3
9 9 12 13 14 15 16 17 18 18 18 18 18 17 18 18 18 18 17 17 14 15 16 17 16 15 14 15 13 12 11 10 9 7 6 6 6 3 5 5 4 4 2
8 9 10 11 13 14 16 17 18 18 18 18 18 16 17 14 14 17 16 16 14 14 17 17 17 17 16 16 14 11 11 9 8 8 6 5 5 4 4 5 5 4 2
8 9 9 10 11 13 14 16 17 17 18 18 17 15 16 16 16 17 15 14 14 15 17 17 18 18 17 16 15 11 11 9 8 7 6 5 4 4 4 3 4 6 5
8 8 8 9 10 11 12 14 15 16 16 17 16 16 15 15 16 15 16 16 16 16 17 17 18 19 18 18 16 13 11 10 8 7 6 5 4 3 3 2 2 3 5
8 8 8 8 10 10 12 13 15 16 16 16 16 15 15 15 15 14 16 16 15 16 17 17 17 18 18 18 16 15 15 12 10 8 6 6 4 3 2 1 1 2 3
8 7 8 9 10 11 12 13 14 15 16 16 15 15 15 15 15 15 16 16 16 15 16 16 16 17 18 17 17 16 16 15 12 10 7 6 4 3 2 1 1 2 2
8 7 7 9 11 11 12 13 13 14 15 15 15 15 15 15 15 16 16 16 16 16 15 15 15 16 16 16 15 15 15 14 13 12 9 7 4 3 1 0 1 1 1
8 8 9 9 10 10 11 12 12 13 15 15 15 15 15 15 15 15 15 16 16 15 16 15 15 15 15 15 14 13 13 13 13 13 11 10 8 4 1 0 1 1 2
11 10 10 9 10 11 11 12 12 13 14 15 15 15 14 14 14 15 15 15 15 16 15 15 15 14 13 13 15 9 10 11 11 12 12 13 16 15 7 3 2 2 1
11 11 12 11 11 11 12 13 13 13 14 14 14 15 15 15 15 14 14 15 15 15 15 15 15 15 13 21 22 11 6 8 9 10 11 11 13 16 17 16 14 10 5
11 11 11 10 10 10 11 12 12 12 13 13 14 15 14 15 15 16 15 15 14 14 14 14 14 14 17 25 23 16 8 6 7 7 8 8 10 12 10 13 16 17 18
9 9 9 10 9 8 10 11 11 11 12 13 13 14 14 14 15 14 14 14 13 12 11 12 13 13 17 25 24 17 9 6 7 7 7 7 8 8 9 9 10 11 11
6 6 7 7 8 9 10 11 11 11 12 13 14 14 14 14 14 13 14 13 12 11 11 11 12 13 16 23 24 17 6 6 6 7 7 7 7 12 12 9 8 9 10
5 6 7 7 9 9 9 10 11 11 12 14 14 14 13 14 13 12 12 12 12 12 14 12 11 11 12 20 23 18 6 6 6 6 8 11 10 12 12 7 6 7 7
6 7 8 8 9 9 9 10 11 11 13 14 14 14 13 13 11 9 10 12 12 12 12 12 11 11 14 19 22 19 7 5 5 5 5 7 11 11 12 10 7 9 9
8 8 8 9 9 9 9 11 12 13 13 14 14 14 13 12 12 10 10 11 11 11 10 9 10 10 12 17 19 20 15 9 4 4 4 5 9 12 13 12 13 14 11
8 8 8 10 10 9 9 11 14 14 14 14 14 14 14 11 11 10 10 9 8 8 10 8 9 10 11 13 21 19 17 14 6 5 5 4 10 13 11 15 16 12 8
8 8 10 12 12 11 12 11 13 14 14 15 15 14 13 12 10 10 9 9 9 9 10 9 8 9 10 10 10 8 8 11 8 5 7 10 13 12 12 12 10 8 8
8 9 10 11 13 13 14 14 14 14 15 16 15 15 14 12 11 11 9 12 9 12 12 7 6 8 7 12 16 11 9 7 6 5 5 5 6 7 7 7 7 7 7
8 10 11 13 14 14 15 15 14 14 15 16 16 14 14 13 12 12 12 16 16 19 19 16 14 10 13 16 14 15 15 15 13 9 6 7 6 6 6 6 6 5 5
Wind_Direction
357 5 9 7 5 4 1 357 355 353 353 352 347 342 341 340 338 340 341 340 340 339 336 336 333 331 323 311 302 293 282 263 240 241 261 262 247 242 242 240 241 239 234
1 2 3 3 1 358 356 354 353 350 352 349 343 337 334 334 335 337 336 338 338 335 336 336 335 332 327 319 312 299 283 270 225 211 227 265 291 262 242 240 239 240 233
351 350 356 356 356 356 354 351 348 348 349 349 347 344 340 340 342 339 336 335 334 332 332 333 333 331 330 326 319 307 287 277 260 223 203 205 229 261 275 248 249 249 238
345 349 355 355 355 352 349 347 346 346 349 350 350 348 348 343 338 334 329 328 328 328 332 335 334 331 329 327 325 320 300 279 270 253 233 222 187 194 257 276 264 264 247
343 347 352 351 352 351 349 347 345 348 351 351 350 348 348 343 337 335 332 331 328 330 335 335 334 332 329 326 324 323 314 294 275 262 243 230 221 197 200 243 267 278 270
339 343 348 352 353 351 350 349 347 349 351 352 351 349 347 344 340 340 337 336 334 334 335 336 334 330 328 325 323 323 318 312 293 275 254 230 205 194 188 206 223 241 269
338 345 352 355 354 352 351 350 348 349 350 350 348 346 347 344 341 338 335 334 333 334 335 337 333 330 326 322 323 323 320 315 308 293 273 259 250 219 188 185 190 208 251
339 344 350 355 352 351 352 351 349 347 349 349 346 344 348 345 339 335 332 330 330 329 332 333 332 330 328 325 322 318 318 320 315 303 291 276 265 249 216 184 166 172 210
335 339 347 356 353 353 353 349 347 347 347 345 343 343 346 342 338 334 332 331 330 330 334 335 336 335 332 330 326 317 314 314 310 305 302 290 276 261 249 215 177 167 181
333 338 351 356 355 355 351 348 347 346 343 343 343 343 340 339 337 335 335 333 332 334 335 339 339 338 337 337 334 326 317 312 310 308 310 305 294 279 266 236 190 155 163
334 342 351 355 352 353 351 347 346 345 343 341 339 338 337 337 337 337 336 334 334 336 338 340 340 340 339 339 338 336 333 324 314 308 304 296 296 297 283 259 177 137 136
330 341 348 353 352 351 349 346 344 343 340 338 337 336 336 337 338 337 336 336 336 336 338 339 340 341 341 341 344 344 345 341 333 325 310 296 289 285 289 276 151 133 132
334 342 349 354 350 347 344 341 340 340 338 338 337 336 337 338 337 336 336 337 337 336 337 338 339 340 338 338 345 349 351 350 348 345 339 329 312 273 276 295 97 107 115
340 344 349 349 344 341 339 337 337 338 339 338 336 336 336 335 334 335 337 338 338 338 338 336 335 335 334 333 339 352 356 355 354 356 359 2 359 344 308 93 79 103 118
344 347 347 343 339 338 337 337 336 336 337 336 336 335 333 334 335 336 338 339 339 340 337 337 336 333 331 331 336 349 359 358 358 1 4 9 15 17 23 49 63 79 102
342 346 344 341 338 336 336 336 333 333 334 332 332 333 336 337 338 337 339 339 338 337 338 339 338 336 335 333 346 4 5 0 1 2 6 11 16 17 24 38 49 54 61
344 344 340 335 330 328 331 329 326 326 329 329 330 333 335 338 338 339 341 339 336 335 335 335 338 337 334 342 355 11 13 5 4 5 10 16 15 24 22 31 40 42 46
342 335 330 328 322 320 326 325 322 324 327 328 330 333 335 335 336 338 339 337 333 332 330 330 334 336 338 343 351 6 9 8 10 6 9 11 14 34 41 40 42 39 39
332 322 319 315 316 321 324 325 324 324 328 331 333 332 332 333 334 338 336 335 333 331 332 333 333 336 338 343 349 6 355 4 8 8 9 10 16 42 51 48 46 41 33
331 324 321 319 321 319 323 325 324 325 328 330 329 328 328 329 327 332 332 332 333 335 338 337 336 335 334 344 349 4 4 5 7 11 7 13 31 48 60 55 56 55 45
329 325 322 320 316 316 324 323 321 319 320 323 324 325 325 321 319 325 327 329 334 334 335 336 338 337 341 346 347 357 10 9 9 15 7 1 28 47 59 65 68 82 78
332 327 326 322 318 317 320 319 317 314 316 318 319 319 318 317 325 320 319 322 327 331 330 332 337 340 339 343 343 355 5 17 12 0 347 357 42 59 69 67 68 74 73
328 326 323 321 319 316 316 315 315 315 316 316 315 313 312 310 309 309 311 314 318 324 327 331 336 336 335 337 342 352 359 3 8 350 352 62 76 67 62 67 67 63 62
330 328 328 326 321 319 318 312 312 316 316 314 313 312 312 309 304 307 309 312 311 312 316 324 329 327 327 328 332 338 348 357 360 7 33 65 80 75 68 63 59 58 67
328 329 325 320 317 319 318 318 318 316 315 314 313 314 314 309 305 304 300 304 296 301 311 315 313 320 317 326 345 5 7 6 22 42 56 66 72 74 71 66 63 60 59
324 324 323 323 320 319 317 317 317 318 316 317 318 318 317 314 314 310 306 304 307 312 318 320 320 323 328 338 359 13 18 23 37 48 48 54 59 63 65 69 68 65 65
Height
1585 1581 1576 1571 1566 1560 1555 1549 1543 1538 1532 1526 1520 1514 1510 1505 1501 1498 1495 1490 1486 1481 1477 1473 1470 1468 1466 1465 1464 1464 1463 1464 1465 1465 1465 1465 1466 1465 1466 1467 1468 1469 1471
1584 1580 1576 1571 1565 1560 1554 1548 1542 1536 1530 1525 1519 1514 1509 1504 1499 1495 1491 1487 1482 1477 1473 1468 1464 1462 1459 1457 1457 1457 1456 1455 1458 1459 1459 1458 1458 1457 1459 1459 1460 1461 1463
1585 1580 1576 1571 1565 1559 1553 1547 1541 1535 1529 1523 1517 1511 1505 1500 1495 1489 1485 1482 1477 1473 1469 1464 1460 1457 1454 1451 1450 1449 1448 1448 1449 1451 1453 1452 1450 1451 1452 1452 1453 1454 1455
1585 1581 1576 1570 1564 1559 1552 1546 1539 1533 1527 1521 1515 1509 1503 1497 1492 1487 1482 1478 1474 1469 1465 1460 1456 1452 1449 1446 1443 1442 1441 1441 1441 1443 1444 1445 1445 1447 1446 1446 1447 1448 1448
1585 1580 1575 1570 1564 1557 1550 1544 1538 1532 1525 1519 1514 1508 1502 1496 1490 1484 1479 1473 1468 1464 1460 1455 1451 1447 1444 1441 1438 1436 1435 1434 1434 1435 1436 1438 1438 1439 1440 1440 1441 1442 1443
1583 1579 1574 1568 1562 1555 1548 1542 1535 1530 1524 1518 1512 1506 1500 1493 1487 1481 1475 1469 1464 1459 1455 1450 1446 1442 1439 1436 1433 1430 1428 1427 1427 1428 1429 1430 1431 1431 1433 1434 1435 1436 1437
1581 1576 1571 1564 1558 1552 1545 1539 1533 1527 1521 1515 1510 1504 1498 1492 1486 1479 1473 1468 1462 1457 1451 1447 1442 1438 1434 1431 1428 1425 1423 1422 1421 1420 1421 1423 1424 1425 1427 1428 1429 1430 1432
1580 1575 1569 1563 1557 1550 1544 1537 1531 1525 1519 1513 1507 1502 1497 1490 1484 1478 1473 1467 1462 1456 1450 1444 1439 1435 1431 1427 1424 1421 1419 1416 1415 1415 1415 1415 1416 1418 1419 1421 1423 1424 1426
1577 1573 1567 1561 1555 1549 1542 1536 1529 1523 1517 1511 1505 1500 1494 1488 1482 1476 1471 1465 1460 1454 1448 1442 1436 1431 1427 1424 1420 1417 1414 1412 1411 1409 1409 1409 1409 1411 1412 1414 1417 1419 1420
1575 1570 1565 1559 1554 1548 1541 1535 1528 1522 1516 1510 1504 1498 1492 1487 1480 1474 1468 1462 1457 1452 1446 1440 1434 1429 1425 1421 1417 1413 1410 1408 1406 1404 1403 1403 1403 1404 1405 1407 1410 1412 1415
1573 1568 1563 1558 1552 1546 1539 1533 1527 1521 1514 1508 1502 1497 1491 1485 1479 1472 1466 1460 1454 1449 1443 1438 1433 1428 1423 1419 1414 1410 1407 1404 1402 1401 1399 1399 1398 1398 1399 1401 1403 1406 1410
1572 1567 1562 1556 1550 1544 1537 1531 1525 1519 1513 1507 1501 1496 1489 1483 1477 1470 1464 1458 1452 1447 1442 1437 1432 1427 1422 1418 1413 1408 1405 1402 1399 1397 1395 1394 1393 1394 1394 1396 1398 1401 1405
1569 1565 1559 1554 1548 1542 1536 1530 1524 1518 1512 1506 1500 1494 1487 1481 1475 1469 1463 1457 1451 1445 1440 1435 1430 1425 1421 1417 1413 1408 1404 1400 1397 1394 1392 1391 1390 1389 1390 1391 1394 1397 1401
1567 1562 1557 1552 1546 1540 1534 1528 1523 1517 1510 1504 1498 1491 1485 1479 1473 1467 1461 1455 1449 1444 1438 1433 1429 1424 1420 1416 1412 1408 1404 1400 1396 1394 1391 1389 1388 1387 1387 1388 1390 1393 1396
1565 1560 1555 1549 1544 1538 1532 1527 1521 1515 1509 1502 1496 1489 1483 1477 1471 1465 1459 1454 1448 1443 1438 1432 1428 1423 1419 1415 1412 1408 1403 1400 1396 1393 1391 1389 1387 1386 1385 1385 1386 1389 1392
1563 1558 1553 1547 1542 1536 1531 1525 1519 1513 1507 1501 1494 1487 1481 1475 1469 1463 1457 1452 1447 1442 1437 1432 1427 1423 1419 1415 1411 1406 1403 1400 1397 1394 1391 1389 1387 1385 1384 1384 1384 1386 1389
1561 1556 1551 1546 1540 1535 1530 1524 1518 1512 1505 1499 1492 1486 1479 1473 1467 1461 1456 1450 1445 1440 1435 1431 1426 1422 1418 1415 1411 1405 1402 1399 1397 1394 1392 1390 1388 1385 1384 1383 1384 1385 1386
1560 1555 1549 1544 1539 1534 1528 1522 1516 1510 1504 1497 1490 1484 1478 1472 1466 1460 1454 1449 1444 1439 1434 1430 1425 1421 1418 1414 1411 1406 1403 1400 1397 1395 1393 1391 1389 1387 1385 1385 1385 1386 1387
1558 1553 1548 1543 1537 1532 1526 1520 1514 1508 1502 1495 1489 1483 1477 1471 1465 1459 1453 1448 1443 1438 1433 1429 1425 1420 1417 1413 1411 1407 1403 1400 1398 1397 1395 1394 1392 1390 1388 1387 1387 1388 1389
1556 1551 1546 1541 1535 1530 1524 1518 1512 1506 1500 1494 1488 1482 1476 1471 1465 1459 1453 1447 1442 1438 1433 1429 1425 1421 1416 1413 1411 1408 1404 1401 1399 1398 1396 1395 1394 1393 1390 1390 1390 1390 1391
1554 1549 1544 1539 1534 1527 1521 1516 1510 1504 1498 1493 1487 1481 1475 1469 1464 1458 1452 1447 1442 1437 1433 1428 1425 1421 1417 1412 1410 1408 1405 1402 1400 1399 1397 1397 1396 1395 1393 1392 1392 1392 1393
1552 1547 1542 1537 1532 1526 1520 1513 1508 1502 1497 1491 1485 1479 1473 1468 1462 1456 1451 1446 1441 1436 1432 1428 1424 1420 1416 1413 1410 1408 1405 1403 1401 1400 1399 1398 1397 1396 1395 1395 1395 1394 1395
1550 1545 1540 1535 1530 1525 1518 1512 1506 1500 1494 1488 1482 1476 1470 1465 1460 1454 1449 1444 1439 1435 1431 1427 1423 1420 1416 1413 1410 1407 1405 1403 1401 1400 1399 1398 1397 1397 1397 1397 1397 1397 1397
1548 1544 1538 1533 1528 1523 1517 1511 1504 1498 1492 1485 1479 1472 1466 1460 1455 1451 1446 1442 1437 1433 1430 1427 1423 1420 1416 1413 1410 1407 1405 1402 1401 1399 1398 1398 1397 1398 1398 1398 1398 1398 1399
1547 1543 1538 1532 1527 1521 1515 1509 1503 1496 1489 1482 1475 1469 1462 1456 1451 1446 1443 1439 1435 1432 1429 1425 1423 1419 1416 1414 1411 1408 1405 1402 1401 1399 1398 1398 1398 1399 1399 1399 1400 1400 1401
1547 1542 1537 1532 1526 1520 1514 1508 1501 1494 1487 1479 1472 1465 1459 1453 1448 1442 1437 1434 1432 1428 1425 1423 1421 1418 1416 1413 1410 1408 1406 1404 1402 1400 1400 1400 1400 1400 1401 1401 1402 1402 1402